Find Starlink 1788

NORAD ID: 46689 Int'l Des: 2020-073 Owner: SPXS Country: US Constellation: starlink operational
LEOCIRCULAR

实时位置

正在加载3D地球...

关于 Starlink 1788

正在加载描述...

即将过境

Passes for default location (London). Set your location on the main map for personalized predictions.

高度历史

Loading altitude history...

两行轨道根数

1 46689U 20073V 26121.27395441 .00168744 00000-0 11651-2 0 9998
2 46689 53.0394 319.1757 0003074 203.9819 156.1057 15.73544716306959
Epoch: May 1, 2026 • Age: 33 hours

当前状态

高度 353.2 km
速度 7.70 km/s
星下点 -26.52°S, 61.44°E
发射日期 Oct 18, 2020
运行时间 5.5 years
类型 internet

技术详情

分类 Payload
质量 260.00 kg
干质量 248.00 kg
总质量 260.00 kg
长度 0.20 m
直径 2.80 m
跨度 9.00 m
形状 Box + pan
制造商 SPXS
平台类型 Starlink
阶段状态 In Orbit
所有者/国家 SPXS/US

Most Searched